Location: All Nations United Methodist Church
(33.0215°N, 96.7483°W)
Time: 15:06:41
(UTC+00:00)

CZ-2C R/B - Pass Details

Date: 24 January 2021
Orbit: 389 x 584 km, 35.0° (Epoch: 06 March)

Event Time Altitude Azimuth Distance (km) Brightness Sun altitude
Exits shadow 12:51:52 10° 282° (WNW) 1,857 3.3 -7.7°
Reaches altitude 10° 12:51:58 10° 282° (WNW) 1,819 3.3 -7.7°
Maximum altitude 12:56:09 70° 6° (N) 561 1.3 -6.9°
Drops below altitude 10° 13:00:05 10° 91° (E) 1,704 5.3 -6.1°
Sets 13:02:13 0° 94° (E) 2,549 6.6 -5.6°
